Location: Mactaquac Provincial Park
(45.9573°N, 66.8897°W)
Time: 05:57:47
(UTC-03:00)

Daily predictions for brighter satellites

Satellite Brightness Start Highest point End
(mag) Time Altitude Azimuth Time Altitude Azimuth Time Altitude Azimuth
H-2A R/B 3.8 00:08:17 27° NE 00:08:17 27° NE 00:11:09 10° N
USA 267 3.3 00:03:39 10° NE 00:10:12 77° NW 00:16:44 10° WSW
Meteor 1-27 Rocket 4.4 00:17:13 45° ENE 00:17:13 45° ENE 00:21:47 10° NNE
Cosmos 1603 4.0 00:16:16 59° WNW 00:16:37 60° WNW 00:22:11 10° NNE
ALOS 2 4.2 00:20:55 30° NNE 00:20:55 30° NNE 00:23:34 10° N
Cosmos 1943 3.4 00:21:18 63° NNE 00:21:18 63° NNE 00:26:04 10° NNE
Cosmos 2369 Rocket 2.8 00:20:31 10° NW 00:25:18 49° W 00:25:18 49° W
ADEOS Rocket 4.1 00:29:32 10° NNE 00:35:01 34° E 00:35:01 34° E
CZ-2C R/B 3.1 00:34:39 10° N 00:39:33 55° NW 00:39:33 55° NW
Cosmos 2173 Rocket 4.0 00:43:59 77° NNE 00:43:59 77° NNE 00:49:50 10° N
USA 234 3.3 00:45:38 64° WSW 00:45:38 64° WSW 00:51:32 10° NW
CZ-4C R/B 3.2 00:44:41 37° WNW 00:46:09 44° NW 00:52:07 10° NNE
Terra 4.1 00:48:17 15° W 00:48:17 15° W 00:50:32 10° NW
ATLAS 5 CENTAUR R/B 3.2 00:49:47 10° NW 00:54:09 42° W 00:54:09 42° W
Cosmos 2016 Rocket 4.1 00:58:46 68° NE 00:58:46 68° NE 01:04:10 10° N
Mayak 0.8 00:55:03 10° NNE 00:56:57 26° NNE 00:56:57 26° NNE
SeaSat 1 3.4 01:09:02 45° NNW 01:09:02 45° NNW 01:12:25 10° NNW
Lacrosse 5 4.0 01:08:18 10° WNW 01:09:43 18° WNW 01:09:43 18° WNW
Tsikada Rocket 4.1 01:08:33 10° N 01:14:13 72° NNE 01:14:13 72° NNE
Cosmos 1459 Rocket 4.3 01:15:57 55° WNW 01:15:57 55° WNW 01:21:41 10° N
Lacrosse 4 Rocket 4.3 01:24:43 10° N 01:27:00 14° NE 01:28:50 11° ENE
Cosmos 1943 Rocket 4.2 01:34:11 10° NW 01:36:08 16° WNW 01:36:08 16° WNW
H-2A R/B 4.3 01:45:23 20° NW 01:45:23 20° NW 01:47:10 10° NNW
USA 267 4.4 01:46:46 10° NE 01:52:44 39° NNW 01:58:40 10° W
Cosmos 968 Rocket 4.4 01:59:43 10° NNW 02:03:17 44° NNW 02:03:17 44° NNW
CZ-2D R/B 4.5 02:03:09 10° ENE 02:05:18 12° E 02:06:00 12° E
COSMOS 2406 3.5 02:08:41 64° NNE 02:08:41 64° NNE 02:13:28 10° NNE
Cosmos 2233 Rocket 4.1 02:08:31 64° NW 02:08:31 64° NW 02:14:09 10° N
Cosmos 1464 Rocket 4.3 02:08:58 56° E 02:08:58 56° E 02:14:59 10° NNE
SL-16 R/B 4.2 02:06:43 18° ESE 02:10:03 28° ENE 02:15:15 10° N
Cosmos 1980 Rocket 4.3 02:06:54 10° N 02:11:13 22° NE 02:15:31 10° E
Cosmos 1697 Rocket 4.1 02:08:53 10° NNW 02:14:03 35° NE 02:16:06 27° E
ADEOS Rocket 3.7 02:14:49 10° N 02:21:26 46° WNW 02:21:59 45° W
Cosmos 2082 Rocket 3.6 02:24:50 27° E 02:24:50 27° E 02:29:07 10° NE
Meteor 1-19 Rocket 4.4 02:27:36 71° NE 02:27:36 71° NE 02:32:52 10° NNE
Nadezhda 4 Rocket 4.4 02:22:36 10° N 02:28:37 52° ENE 02:29:26 49° ESE
Cosmos 1513 Rocket 4.4 02:30:27 73° E 02:30:27 73° E 02:36:25 10° NNE
Cosmos 1891 Rocket 4.4 02:34:12 76° E 02:34:12 76° E 02:40:09 10° NNE
Mayak 1.5 02:32:37 10° NW 02:33:35 12° NW 02:33:35 12° NW
Cosmos 909 Rocket 4.1 02:30:03 10° NNW 02:36:21 74° NE 02:37:38 57° ESE
Cosmos 1656 3.8 02:35:01 10° NNW 02:40:38 75° NE 02:40:38 75° NE
Resurs 1-4 Rocket 3.6 02:37:35 10° NE 02:41:55 26° E 02:42:27 25° ESE
Cosmos 1975 Rocket 4.4 02:51:48 33° NNW 02:51:48 33° NNW 02:54:38 10° N
Cosmos 1340 Rocket 4.5 02:53:20 30° NE 02:53:20 30° NE 02:55:47 10° NNE
NPP 4.3 02:47:40 10° NNE 02:52:51 46° E 02:53:04 45° ESE
Cosmos 1455 Rocket 4.4 02:48:46 10° NNW 02:51:19 34° NNW 02:51:19 34° NNW
Meteor 1-13 Rocket 4.2 02:58:46 71° WNW 02:58:46 71° WNW 03:04:16 10° N
SL-08 R/B 3.9 02:58:50 51° E 02:59:09 52° ENE 03:03:53 10° N
Cosmos 1833 Rocket 2.9 02:59:55 58° ESE 02:59:56 58° ESE 03:05:29 10° NNE
Cosmos 2369 3.8 02:54:26 10° NNW 02:59:23 66° NW 02:59:23 66° NW
Cosmos 1025 Rocket 4.3 03:06:03 34° E 03:06:03 34° E 03:09:39 10° NNE
UNK 4.2 03:05:47 54° ENE 03:05:50 54° ENE 03:10:19 10° N
Lacrosse 4 Rocket 2.5 03:02:02 10° NNW 03:05:06 43° NNW 03:05:06 43° NNW
CZ-4B R/B 4.2 03:13:55 13° NNW 03:13:55 13° NNW 03:14:24 10° NNW
AQUA 4.1 03:14:21 10° NNE 03:19:05 60° E 03:19:07 60° ESE
Gbstr 26 Del rocket 4.4 03:16:39 44° WSW 03:19:28 77° NNW 03:26:28 10° ENE
Iridium 4 Rocket 3.5 03:21:01 56° E 03:21:01 56° E 03:25:18 10° N
Cosmos 1607 3.9 03:20:37 66° SW 03:21:39 89° WNW 03:28:13 10° NE
Cosmos 1536 Rocket 4.1 03:23:24 51° NNW 03:23:24 51° NNW 03:26:51 10° N
Cosmos 2034 Rocket 4.2 03:25:56 52° W 03:26:35 54° WNW 03:32:43 10° N
APEX 4.5 03:27:02 58° S 03:28:25 78° ESE 03:34:15 10° NNE
ARIANE 5 R/B 3.4 03:26:49 10° NNE 03:31:50 43° E 03:33:21 34° SE
Cosmos 1867 3.9 03:28:54 10° NW 03:33:14 49° WNW 03:33:14 49° WNW
Cosmos 1356 Rocket 4.4 03:34:47 36° ESE 03:35:03 37° E 03:38:48 10° NNE
Lacrosse 5 rocket 1.6 03:35:46 68° NE 03:35:46 68° NE 03:39:23 10° NE
Cosmos 1092 Rocket 3.9 03:30:00 10° NNW 03:36:13 73° W 03:37:32 56° SSW
PSLV R/B 4.1 03:37:37 71° NNE 03:37:37 71° NNE 03:41:21 10° N
Cosmos 332 Rocket 4.0 03:37:47 55° WNW 03:37:47 55° WNW 03:42:27 10° NNE
Cosmos 371 Rocket 3.4 03:38:31 59° WNW 03:38:33 59° WNW 03:43:22 10° NNE
Meteor 1-23 Rocket 4.2 03:38:30 58° WSW 03:39:12 63° WNW 03:44:53 10° N
Meteor 2-4 Rocket 4.3 03:39:37 38° WNW 03:39:46 38° WNW 03:44:45 10° N
Exosat Rocket 4.3 03:34:57 10° NNW 03:40:46 58° WSW 03:42:46 44° SSW
Okean 2 3.6 03:43:32 64° NNW 03:43:32 64° NNW 03:47:08 10° N
CZ-2D R/B 2.0 03:40:44 10° NNE 03:46:11 87° ESE 03:47:19 57° S
Helios 1A Rocket 4.0 03:46:10 10° NNE 03:50:06 39° E 03:51:05 33° SE
IRS P6 4.5 03:47:20 10° NNE 03:52:37 86° WNW 03:53:48 55° SSW
SL-16 R/B 2.6 03:51:48 47° SSW 03:53:17 59° WSW 03:59:30 10° NNW
Cosmos 1980 Rocket 2.0 03:50:12 10° NNW 03:55:49 74° WSW 03:58:11 36° S
Cosmos 1726 Rocket 4.0 03:52:31 10° N 03:56:48 59° E 03:58:27 34° SE
Cosmos 1697 Rocket 3.1 03:52:47 10° NW 03:57:47 42° W 03:57:47 42° W
IRS-1D 3.5 03:52:56 10° NNE 03:58:08 87° WNW 03:59:30 51° SSW
IRS-1C 4.1 03:57:02 10° N 04:02:22 69° WNW 04:03:43 49° SW
ADEOS II 3.5 04:02:16 10° NNE 04:07:00 32° E 04:11:24 11° SSE
Cosmos 2082 Rocket 2.6 04:06:40 39° WSW 04:08:13 49° WNW 04:13:42 10° NNE
SL-16 R/B 3.0 04:03:10 10° NNW 04:08:44 52° ENE 04:14:15 10° SE
ADEOS 4.1 04:04:24 10° NNE 04:09:32 54° E 04:12:29 25° SSE
Okean 1-7 Rocket 3.5 04:09:03 57° SSW 04:09:54 80° W 04:14:27 10° N
H-2A R/B 3.3 04:06:51 10° N 04:10:46 37° WNW 04:10:57 36° WNW
Cosmos 304 Rocket 3.7 04:11:51 51° SW 04:12:59 75° WNW 04:17:50 10° NNE
UNKNOWN OBJECT B 3.2 04:13:20 10° NNE 04:17:10 58° E 04:18:22 38° SSE
Cosmos 2058 Rocket 3.3 04:13:30 10° N 04:17:57 70° E 04:20:58 20° SSE
ATLAS 3B R/B 3.5 04:16:15 20° S 04:20:57 45° ESE 04:27:28 10° NE
Meteor 1-22 Rocket 4.2 04:15:55 10° NNW 04:21:56 80° W 04:26:19 18° S
Resurs 1-4 Rocket 2.5 04:16:57 10° N 04:21:58 46° WNW 04:23:33 36° WSW
Cosmos 1544 3.4 04:18:29 10° NNW 04:21:44 48° WNW 04:21:44 48° WNW
MOZ.5/SAFIR/RUBIN 5/SL-8 4.1 04:21:27 43° WSW 04:22:03 45° W 04:26:38 10° NNW
Cosmos 2228 2.9 04:18:03 10° N 04:22:21 84° ENE 04:24:39 27° SSE
Cosmos 2322 Rocket 2.6 04:18:42 10° NNW 04:24:21 64° ENE 04:29:55 10° SE
Cosmos 1606 Rocket 3.6 04:20:43 10° NNW 04:24:57 57° W 04:25:51 46° SW
Cosmos 1634 Rocket 4.4 04:24:53 33° WSW 04:27:09 45° WNW 04:33:09 10° N
Cosmos 2180 Rocket 4.5 04:26:45 24° SSW 04:30:48 83° W 04:37:16 10° N
SJ 16-02 3.0 04:33:00 10° N 04:37:06 36° ENE 04:41:11 10° SE
Cosmos 1763 Rocket 3.5 04:34:40 27° SSW 04:37:40 83° ESE 04:43:01 10° NNE
Cosmos 1892 Rocket 3.6 04:38:19 34° SSW 04:40:06 65° W 04:44:30 10° N
Cosmos 2279 Rocket 4.1 04:36:56 27° SSW 04:40:23 59° WNW 04:46:36 10° N
USA 215 4.1 04:34:38 10° ENE 04:40:45 41° SE 04:45:35 16° SSW
ATLAS CENTAUR R/B 3.6 04:39:26 10° NNW 04:43:19 31° NE 04:47:23 10° ESE
Cosmos 1842 3.2 04:41:25 30° S 04:43:20 87° W 04:47:20 10° N
Cosmos 1025 Rocket 4.4 04:42:56 22° W 04:43:27 22° WNW 04:46:49 10° NNW
Cosmos 1833 Rocket 4.0 04:41:36 19° W 04:44:15 27° NW 04:49:00 10° N
COSMOS 2487 3.7 04:45:12 25° WNW 04:45:37 26° WNW 04:48:38 10° N
Cosmos 1898 Rocket 4.1 04:45:11 10° NW 04:49:54 36° WSW 04:52:29 22° SSW
deb Kosmos-1763 4.1 04:48:12 28° SSW 04:50:05 79° ESE 04:53:52 10° NNE
BREEZE-M DEB (TANK) 3.9 04:53:17 13° SSE 04:53:44 13° SE 04:55:00 10° ESE
Cosmos 44 3.5 04:51:31 10° NW 04:56:38 57° WSW 05:01:54 10° SSE
Cosmos 1805 3.4 04:53:09 10° NNW 04:56:56 48° W 04:59:11 22° SSW
Cosmos 1953 2.7 04:53:24 10° N 04:57:29 66° E 05:01:31 10° SSE
Cosmos 1937 Rocket 3.9 04:55:27 10° NW 05:00:16 40° WSW 05:05:02 10° S
BREEZE-M R/B 3.1 05:00:43 27° SW 05:02:32 69° SSE 05:08:42 10° ENE
Cosmos 1125 Rocket 4.2 04:57:37 10° NNW 05:02:54 59° ENE 05:08:07 10° SE
Cosmos 1766 4.2 05:00:40 10° NNW 05:03:59 27° W 05:04:57 24° WSW
Cosmos 724 4.4 05:05:15 20° SW 05:09:16 60° NW 05:15:01 10° NNE
ARIANE 5 R/B 3.7 05:06:18 10° N 05:10:44 28° WNW 05:13:42 17° WSW
Timation 2 Rocket 3.9 05:07:41 17° SW 05:12:22 70° WNW 05:18:21 10° NNE
Aureole 2 Rocket 3.2 05:09:16 10° NNW 05:13:07 61° ENE 05:16:42 10° SSE
Lacrosse 5 rocket 3.0 05:11:25 10° WNW 05:14:52 25° NNW 05:18:14 10° NE
USA 267 4.0 05:10:43 10° E 05:17:03 55° NNE 05:23:24 10° NW
Okean O Rocket 3.6 05:14:04 10° NE 05:17:53 29° E 05:21:39 10° SSE
Cosmos 2266 Rocket 4.1 05:16:21 10° NNW 05:22:12 51° W 05:28:06 10° SSW
Cosmos 1758 3.6 05:19:47 10° NNW 05:23:35 45° W 05:27:22 10° SSW
USA 238 DEB 3.8 05:17:41 15° SW 05:23:36 76° NW 05:30:38 10° NE
USA 238 3.8 05:17:45 15° SW 05:23:42 77° NW 05:30:44 10° NE
Helios 1A Rocket 4.5 05:21:53 10° NNW 05:25:04 21° WNW 05:27:23 14° WSW
Cosmos 44 Rocket 3.6 05:20:28 10° NW 05:25:23 47° WSW 05:30:20 10° S
CZ-2D R/B 4.0 05:22:20 10° NNW 05:25:30 16° WNW 05:28:37 10° W
Cosmos 372 Rocket 3.9 05:21:55 10° NNW 05:27:11 83° WSW 05:32:21 10° SSE
DNEPR-1 R/B 3.6 05:26:52 12° SSW 05:30:49 82° ESE 05:35:31 10° NE
Cosmos 1733 3.6 05:29:53 10° NNW 05:33:33 41° W 05:37:11 10° SSW
Gblst 52 Del rocket 4.4 05:31:04 10° WNW 05:37:01 72° SSW 05:43:49 10° SE
Cosmos 2360 Rocket 2.2 05:31:41 10° NNW 05:37:20 80° WSW 05:42:57 10° SSE
Cosmos 1980 Rocket 4.0 05:37:36 10° W 05:38:47 11° W 05:39:51 10° WSW
PSLV R/B 3.5 05:37:01 10° N 05:41:13 69° WNW 05:45:23 10° SSW
ADEOS II 2.8 05:41:56 10° N 05:46:44 37° WNW 05:51:30 10° SW
Cosmos 1953 Rocket 4.4 05:45:03 10° S 05:49:25 55° E 05:53:47 10° NNE
Cosmos 2333 Rocket 3.9 05:45:43 10° NNW 05:51:01 39° NE 05:56:18 10° ESE
Cosmos 1812 Rocket 4.1 05:47:16 10° NNW 05:51:28 40° W 05:55:38 10° SSW
SL-16 R/B 3.1 05:47:52 10° NW 05:52:30 26° WSW 05:57:06 10° SSW
CZ-4B R/B 3.0 05:49:03 10° N 05:53:19 69° WNW 05:57:19 10° SSW
Cosmos 841 Rocket 4.3 05:48:41 10° WSW 05:53:22 34° WNW 05:58:07 10° N
Cosmos 2082 Rocket 4.3 05:51:45 10° NW 05:53:46 12° NW 05:55:48 10° NNW
COSMOS 2428 3.3 05:50:46 10° NNW 05:56:28 65° ENE 06:02:06 10° SE
Cosmos 1602 Rocket 4.4 05:54:56 10° SW 05:58:47 31° WNW 06:02:38 10° N
Cosmos 1470 3.7 05:55:43 10° NNW 05:59:10 29° W 06:02:37 10° SSW
NOSS 3-2 (C) 3.6 05:54:40 10° SW 06:00:38 89° SE 06:07:21 10° NE
BREEZE-M DEB (TANK) 4.3 05:52:23 10° WNW 06:06:23 77° NNE 06:10:10 10° E
